Location: site
(53.0000°N, 23.0500°E)
Time: 22:36:51
(UTC+01:00)

SAOCOM 1-A - Pass Details

Date: 17 January 2020
Orbit: 621 x 623 km, 97.9° (Epoch: 24 February)

Event Time Altitude Azimuth Distance (km) Brightness Sun altitude
Exits shadow 18:51:35 21° 347° (NNW) 1,417 ? -27.4°
Maximum altitude 18:53:52 36° 295° (WNW) 999 ? -27.8°
Drops below altitude 10° 18:57:50 10° 229° (SW) 1,992 ? -28.4°
Sets 19:00:08 0° 221° (SW) 2,894 ? -28.7°
